#timestamp,LO_Frequency,Hit 
1500966015.0,286046993.3,N
1500966015.9,286046993.3,N
1500966035.8,286046993.4,N
1500966055.6,286046993.7,N
1500966075.4,286046994.6,N
1500966095.3,286046998.0,N
1500966115.1,286046999.5,N
1500966116.0,286046999.5,N
1500966135.8,286046995.0,N
1500966155.7,286046996.2,N
1500966175.5,286046993.3,N
1500966195.3,286046992.4,N
1500966215.3,286046990.1,N
1500966235.1,286046990.4,N
1500966236.0,286046990.4,N
1500966255.8,286046991.0,N
1500966275.7,286046992.4,N
1500966295.5,286046994.4,N
1500966315.3,286046992.5,N
1500966335.2,286046990.9,N
1500966355.9,286046994.7,N
1500966375.7,286046991.3,N
1500966395.6,286046992.4,N
1500966415.4,286046994.5,N
1500966435.2,286046995.2,N
1500966455.0,286046994.4,N
1500966455.9,286046994.4,N
1500966475.8,286046998.4,N
1500966495.6,286046999.1,N
1500966515.4,286046999.9,N
1500966535.3,286046999.7,N
1500966555.1,286047003.9,N
1500966556.0,286047003.9,N
1500966575.8,286047002.7,N
1500966595.7,286046998.9,N
1500966615.5,286046994.0,N
1500966635.3,286046991.7,N
1500966655.2,286046995.8,N
1500966675.9,286046999.1,N
1500966695.7,286046998.4,N
1500966715.5,286046994.9,N
1500966735.4,286046996.6,N
1500966755.2,286046997.1,N
1500966775.0,286046999.5,N
1500966775.9,286046999.5,N
1500966795.8,286046997.2,N
1500966815.6,286046996.4,N
1500966835.4,286046995.5,N
1500966855.3,286047004.4,N
1500966875.1,286047002.3,N
1500966895.5,286047001.1,N
1500966915.4,286047000.4,N
1500966935.2,286047004.2,N
1500966955.0,286047002.1,N
1500966955.9,286047002.1,N
1500966975.8,286046998.8,N
1500966995.6,286046996.5,N
1500967015.4,286046993.8,N
1500967035.3,286046995.5,N
1500967055.1,286046997.9,N
1500967056.0,286046997.9,N
1500967075.8,286046993.7,N
1500967095.6,286046992.1,N
1500967115.5,286046992.0,N
1500967135.3,286046994.7,N
1500967155.1,286046991.5,N
1500967175.9,286046990.3,N
1500967195.7,286046990.8,N
1500967215.5,286046994.2,N
1500967235.4,286046992.2,N
1500967255.2,286046993.1,N
1500967275.0,286046992.4,N
1500967275.9,286046992.4,N
1500967295.8,286046993.1,N
1500967315.6,286046992.0,N
1500967335.4,286046994.7,N
1500967355.3,286046993.5,N
1500967375.1,286046992.5,N
1500967376.0,286046992.5,N
1500967395.8,286046994.3,N
1500967415.6,286046996.3,N
1500967435.5,286046996.2,N
1500967455.3,286046997.2,N
1500967475.1,286046994.1,N
1500967495.9,286046996.3,N
1500967515.7,286046992.1,N
1500967535.5,286046993.1,N
1500967555.4,286046994.8,N
1500967575.2,286046992.4,N
1500967595.0,286046992.8,N
1500967595.9,286046992.8,N
1500967615.8,286046988.6,N
1500967635.6,286046988.7,N
1500967655.4,286046989.1,N
1500967675.3,286046987.4,Y
1500967695.1,286046994.1,N
1500967696.0,286046994.1,N
1500967715.8,286046998.7,N
1500967735.7,286046999.0,N
1500967755.5,286046997.7,N
1500967775.3,286046997.9,N
1500967795.1,286046996.0,N
1500967815.9,286046995.4,N
1500967835.7,286046993.9,N
1500967855.5,286046992.8,N
1500967875.4,286046993.9,N
1500967895.2,286046993.9,N
1500967915.0,286046997.4,N
1500967915.9,286046997.4,N
1500967935.8,286047000.7,N
1500967955.6,286046999.4,N
1500967975.4,286047000.7,N
1500967995.3,286047002.6,N
1500968015.4,286047001.2,N
1500968035.2,286046996.9,N
1500968055.1,286046998.2,N
1500968056.0,286046998.2,N
1500968075.8,286046995.2,N
1500968095.6,286046995.4,N
1500968115.5,286046995.6,N
1500968135.3,286046992.6,N
1500968155.1,286046992.1,N
1500968175.8,286046995.7,N
1500968195.7,286046997.9,N
1500968215.5,286046995.4,N
1500968235.3,286046998.1,N
1500968255.2,286046999.3,N
1500968275.9,286046997.3,N
1500968295.7,286046999.3,N
1500968315.6,286046995.5,N
1500968335.4,286046996.2,N
1500968355.2,286046995.3,N
1500968375.1,286046996.2,N
1500968376.0,286046996.2,N
1500968395.8,286046992.1,N
1500968415.6,286046993.5,N
1500968435.4,286046989.4,N
1500968455.3,286046993.1,N
1500968475.1,286046992.8,N
1500968495.8,286046993.6,N
1500968515.7,286046998.3,N
1500968535.6,286046998.0,N
1500968555.4,286046998.0,N
1500968575.2,286046995.2,N
1500968595.1,286046996.9,N
1500968596.0,286046996.9,N
1500968615.8,286047002.1,N
1500968635.6,286047000.2,N
1500968655.5,286047001.4,N
1500968675.3,286047002.4,N
1500968695.1,286046999.2,N
1500968715.8,286046999.3,N
1500968735.7,286047000.0,N
1500968755.5,286046999.6,N
1500968775.3,286047002.4,N
1500968795.2,286046997.7,N
1500968815.9,286046996.6,N
1500968835.7,286047000.6,N
1500968855.6,286047000.7,N
1500968875.4,286046998.2,N
1500968895.2,286046996.6,N
1500968915.1,286047003.7,N
1500968935.8,286047003.2,N
1500968955.7,286047005.7,N
1500968975.5,286047010.7,N
1500968995.3,286047001.4,N
1500969015.2,286047002.8,N
1500969035.9,286047001.9,N
1500969055.7,286047002.5,N
1500969075.6,286046999.8,N
1500969095.4,286047002.1,N
1500969115.2,286047001.2,N
1500969135.0,286047003.2,N
1500969136.0,286047003.2,N
1500969155.8,286047003.1,N
1500969175.6,286047006.0,N
1500969195.4,286047006.3,N
1500969215.3,286047007.5,N
1500969235.1,286047006.7,N
1500969255.8,286047005.3,N
1500969275.7,286046998.5,N
1500969295.5,286047000.6,N
1500969315.3,286047001.6,N
1500969335.2,286047005.0,N
1500969355.9,286047007.8,N
1500969375.7,286047010.7,N
1500969395.5,286047009.2,N
1500969415.4,286047009.0,N
1500969435.2,286047007.0,N
1500969455.0,286047002.2,N
1500969455.9,286047002.2,N
1500969475.8,286047004.2,N
1500969495.6,286047001.5,N
1500969515.4,286047000.3,N
1500969535.3,286046999.1,N
1500969555.1,286046996.3,N
1500969556.0,286046996.3,N
1500969575.8,286046993.9,N
1500969595.7,286046995.5,N
